| time (UTC) | temp F | wind direction | speed MPH | gust MPH | rain 1hr in | rain 24hr in | rain mn in | humidity % | barometer mb |
| 20260906012807 | 79 | 338 | 0.0 | 0.0 | 0.00 | 0.02 | 0.02 | 94 | 1010.9 |
| 20260906012307 | 79 | 338 | 0.0 | 0.0 | 0.00 | 0.02 | 0.02 | 94 | 1010.8 |
| 20260906011804 | 79 | 338 | 0.0 | 0.0 | 0.00 | 0.02 | 0.02 | 94 | 1010.8 |
| 20260906011302 | 79 | 337 | 0.0 | 0.0 | 0.00 | 0.02 | 0.02 | 94 | 1010.7 |
| 20260906010803 | 79 | 337 | 0.0 | 0.0 | 0.00 | 0.02 | 0.02 | 94 | 1010.7 |
| 20260906010301 | 79 | 337 | 0.0 | 0.0 | 0.00 | 0.02 | 0.02 | 93 | 1010.6 |
| 20260906005800 | 79 | 338 | 0.0 | 0.0 | 0.00 | 0.02 | 0.02 | 92 | 1010.5 |
| 20260906005258 | 79 | 338 | 0.0 | 0.0 | 0.00 | 0.02 | 0.02 | 92 | 1010.4 |
| 20260906004756 | 79 | 337 | 0.0 | 0.0 | 0.00 | 0.02 | 0.02 | 92 | 1010.4 |
| 20260906004257 | 80 | 338 | 0.0 | 0.0 | 0.00 | 0.02 | 0.02 | 91 | 1010.4 |
| 20260906003753 | 80 | 338 | 0.0 | 0.0 | 0.00 | 0.02 | 0.02 | 91 | 1010.4 |
| 20260906003258 | 80 | 337 | 0.0 | 0.0 | 0.00 | 0.02 | 0.02 | 90 | 1010.4 |
| 20260906003253 | 80 | 337 | 0.0 | 0.0 | 0.00 | 0.02 | 0.02 | 90 | 1010.4 |
| 20260906002250 | 80 | 338 | 0.0 | 0.0 | 0.00 | 0.02 | 0.02 | 89 | 1010.4 |
| 20260906001751 | 80 | 338 | 0.0 | 0.0 | 0.00 | 0.02 | 0.02 | 89 | 1010.4 |
| 20260906001249 | 80 | 338 | 0.0 | 0.0 | 0.00 | 0.02 | 0.02 | 89 | 1010.4 |
| 20260906000746 | 81 | 337 | 0.0 | 0.0 | 0.00 | 0.02 | 0.02 | 88 | 1010.4 |
| 20260906000244 | 81 | 337 | 0.0 | 0.0 | 0.00 | 0.02 | 0.02 | 89 | 1010.4 |
| 20260905235745 | 81 | 338 | 0.0 | 0.0 | 0.00 | 0.02 | 0.02 | 88 | 1010.5 |
| 20260905235243 | 81 | 337 | 0.0 | 0.0 | 0.00 | 0.02 | 0.02 | 88 | 1010.4 |
| 20260905234742 | 81 | 338 | 0.0 | 0.0 | 0.01 | 0.02 | 0.02 | 89 | 1010.4 |
| 20260905234241 | 81 | 338 | 0.0 | 0.0 | 0.02 | 0.02 | 0.02 | 88 | 1010.4 |
| 20260905233741 | 81 | 338 | 0.0 | 0.0 | 0.02 | 0.02 | 0.02 | 88 | 1010.4 |
| 20260905233243 | 81 | 338 | 0.0 | 0.0 | 0.02 | 0.02 | 0.02 | 88 | 1010.4 |
| 20260905232742 | 81 | 337 | 0.0 | 0.0 | 0.02 | 0.02 | 0.02 | 87 | 1010.4 |
| 20260905232241 | 81 | 338 | 0.0 | 1.0 | 0.02 | 0.02 | 0.02 | 87 | 1010.4 |
| 20260905231741 | 82 | 338 | 0.0 | 1.0 | 0.02 | 0.02 | 0.02 | 85 | 1010.4 |
| 20260905231243 | 82 | 335 | 0.0 | 2.0 | 0.02 | 0.02 | 0.02 | 84 | 1010.4 |
| 20260905230741 | 82 | 335 | 0.0 | 2.0 | 0.02 | 0.02 | 0.02 | 81 | 1010.4 |
| 20260905230240 | 83 | 316 | 0.0 | 2.0 | 0.02 | 0.02 | 0.02 | 80 | 1010.5 |
| 20260905225736 | 83 | 205 | 0.0 | 2.0 | 0.02 | 0.02 | 0.02 | 80 | 1010.5 |
| 20260905225236 | 84 | 225 | 0.0 | 2.0 | 0.02 | 0.02 | 0.02 | 78 | 1010.5 |
| 20260905224736 | 86 | 222 | 1.0 | 4.0 | 0.01 | 0.01 | 0.01 | 74 | 1010.7 |
| 20260905224233 | 88 | 326 | 2.0 | 5.0 | 0.00 | 0.00 | 0.00 | 70 | 1011.0 |
| 20260905223740 | 92 | 30 | 2.0 | 5.0 | 0.00 | 0.00 | 0.00 | 65 | 1010.8 |
| 20260905223735 | 90 | 342 | 2.0 | 5.0 | 0.00 | 0.00 | 0.00 | 67 | 1011.0 |
| 20260905222733 | 93 | 349 | 1.0 | 4.0 | 0.00 | 0.00 | 0.00 | 59 | 1010.6 |
| 20260905222232 | 94 | 342 | 0.0 | 1.0 | 0.00 | 0.00 | 0.00 | 58 | 1010.5 |
| 20260905221733 | 95 | 252 | 1.0 | 3.0 | 0.00 | 0.00 | 0.00 | 56 | 1010.4 |
| 20260905221231 | 96 | 20 | 1.0 | 3.0 | 0.00 | 0.00 | 0.00 | 53 | 1010.6 |
| 20260905220730 | 98 | 31 | 1.0 | 5.0 | 0.00 | 0.00 | 0.00 | 52 | 1010.6 |
| 20260905220229 | 99 | 11 | 1.0 | 5.0 | 0.00 | 0.00 | 0.00 | 50 | 1010.6 |
| 20260905215726 | 101 | 18 | 1.0 | 3.0 | 0.00 | 0.00 | 0.00 | 53 | 1010.4 |
| 20260905215227 | 101 | 132 | 0.0 | 2.0 | 0.00 | 0.00 | 0.00 | 52 | 1010.3 |
| 20260905214725 | 101 | 143 | 1.0 | 3.0 | 0.00 | 0.00 | 0.00 | 53 | 1010.3 |
| 20260905214223 | 101 | 71 | 1.0 | 4.0 | 0.00 | 0.00 | 0.00 | 51 | 1010.1 |
| 20260905213720 | 101 | 299 | 1.0 | 4.0 | 0.00 | 0.00 | 0.00 | 51 | 1010.1 |
| 20260905213219 | 101 | 295 | 1.0 | 3.0 | 0.00 | 0.00 | 0.00 | 51 | 1010.1 |
| 20260905212718 | 101 | 351 | 1.0 | 4.0 | 0.00 | 0.00 | 0.00 | 51 | 1010.2 |
| 20260905212218 | 101 | 212 | 1.0 | 4.0 | 0.00 | 0.00 | 0.00 | 50 | 1010.2 |
| 20260905211718 | 101 | 150 | 0.0 | 2.0 | 0.00 | 0.00 | 0.00 | 49 | 1010.2 |
| 20260905211218 | 101 | 255 | 0.0 | 3.0 | 0.00 | 0.00 | 0.00 | 51 | 1010.3 |
| 20260905210716 | 102 | 235 | 0.0 | 3.0 | 0.00 | 0.00 | 0.00 | 52 | 1010.3 |
| 20260905210215 | 103 | 195 | 0.0 | 2.0 | 0.00 | 0.00 | 0.00 | 52 | 1010.4 |
| 20260905205718 | 102 | 90 | 0.0 | 5.0 | 0.00 | 0.00 | 0.00 | 49 | 1010.5 |
| 20260905205713 | 102 | 89 | 0.0 | 2.0 | 0.00 | 0.00 | 0.00 | 48 | 1010.5 |
| 20260905204710 | 102 | 204 | 1.0 | 5.0 | 0.00 | 0.00 | 0.00 | 53 | 1010.4 |
| 20260905204213 | 102 | 301 | 0.0 | 2.0 | 0.00 | 0.00 | 0.00 | 50 | 1010.4 |
| 20260905204208 | 101 | 145 | 0.0 | 1.0 | 0.00 | 0.00 | 0.00 | 55 | 1010.6 |
| 20260905203813 | 101 | 146 | 0.0 | 1.0 | 0.00 | 0.00 | 0.00 | 51 | 1010.6 |
| 20260905202705 | 101 | 143 | 0.0 | 2.0 | 0.00 | 0.00 | 0.00 | 49 | 1010.5 |
| 20260905202206 | 101 | 200 | 0.0 | 2.0 | 0.00 | 0.00 | 0.00 | 49 | 1010.6 |
| 20260905201706 | 102 | 163 | 0.0 | 1.0 | 0.00 | 0.00 | 0.00 | 50 | 1010.7 |
| 20260905201206 | 103 | 230 | 0.0 | 5.0 | 0.00 | 0.00 | 0.00 | 48 | 1010.7 |
| 20260905200706 | 103 | 231 | 1.0 | 5.0 | 0.00 | 0.00 | 0.00 | 50 | 1010.7 |
| 20260905200207 | 102 | 205 | 1.0 | 7.0 | 0.00 | 0.00 | 0.00 | 47 | 1010.8 |
| 20260905200203 | 102 | 243 | 1.0 | 7.0 | 0.00 | 0.00 | 0.00 | 46 | 1010.9 |
| 20260905195200 | 102 | 68 | 1.0 | 5.0 | 0.00 | 0.00 | 0.00 | 43 | 1010.9 |
| 20260905194657 | 103 | 129 | 1.0 | 5.0 | 0.00 | 0.00 | 0.00 | 44 | 1010.9 |
| 20260905194157 | 103 | 95 | 0.0 | 5.0 | 0.00 | 0.00 | 0.00 | 49 | 1010.9 |
| 20260905193657 | 103 | 124 | 0.0 | 1.0 | 0.00 | 0.00 | 0.00 | 53 | 1011.0 |
| 20260905193158 | 103 | 194 | 0.0 | 1.0 | 0.00 | 0.00 | 0.00 | 50 | 1011.0 |
| 20260905192659 | 102 | 136 | 0.0 | 3.0 | 0.00 | 0.00 | 0.00 | 51 | 1011.1 |
| 20260905192203 | 101 | 154 | 1.0 | 3.0 | 0.00 | 0.00 | 0.00 | 52 | 1011.3 |
| 20260905192159 | 102 | 165 | 1.0 | 3.0 | 0.00 | 0.00 | 0.00 | 49 | 1011.2 |
| 20260905191203 | 101 | 214 | 2.0 | 6.0 | 0.00 | 0.00 | 0.00 | 50 | 1011.4 |
| 20260905191157 | 101 | 163 | 1.0 | 5.0 | 0.00 | 0.00 | 0.00 | 50 | 1011.4 |
| 20260905190203 | 101 | 108 | 1.0 | 5.0 | 0.00 | 0.00 | 0.00 | 50 | 1011.4 |
| 20260905190159 | 101 | 231 | 1.0 | 6.0 | 0.00 | 0.00 | 0.00 | 50 | 1011.4 |
| 20260905185157 | 101 | 358 | 1.0 | 5.0 | 0.00 | 0.00 | 0.00 | 51 | 1011.5 |
| 20260905184659 | 101 | 95 | 1.0 | 4.0 | 0.00 | 0.00 | 0.00 | 48 | 1011.5 |
| 20260905184158 | 102 | 228 | 1.0 | 3.0 | 0.00 | 0.00 | 0.00 | 49 | 1011.7 |
| 20260905183658 | 102 | 114 | 1.0 | 2.0 | 0.00 | 0.00 | 0.00 | 50 | 1011.8 |
| 20260905183158 | 102 | 131 | 1.0 | 4.0 | 0.00 | 0.00 | 0.00 | 49 | 1011.9 |
| 20260905182658 | 101 | 72 | 1.0 | 4.0 | 0.00 | 0.00 | 0.00 | 51 | 1011.9 |
| 20260905182203 | 101 | 212 | 1.0 | 6.0 | 0.00 | 0.00 | 0.00 | 49 | 1012.0 |
| 20260905182158 | 101 | 262 | 1.0 | 6.0 | 0.00 | 0.00 | 0.00 | 50 | 1012.0 |
| 20260905181814 | 102 | 72 | 1.0 | 2.0 | 0.00 | 0.00 | 0.00 | 50 | 1012.1 |
| 20260905180659 | 102 | 257 | 1.0 | 2.0 | 0.00 | 0.00 | 0.00 | 50 | 1012.1 |
| 20260905180158 | 102 | 44 | 0.0 | 2.0 | 0.00 | 0.00 | 0.00 | 52 | 1012.2 |
| 20260905175658 | 101 | 176 | 0.0 | 2.0 | 0.00 | 0.00 | 0.00 | 53 | 1012.1 |
| 20260905175159 | 101 | 32 | 0.0 | 2.0 | 0.00 | 0.00 | 0.00 | 54 | 1012.2 |
| 20260905174657 | 101 | 159 | 0.0 | 2.0 | 0.00 | 0.00 | 0.00 | 54 | 1012.1 |
| 20260905174159 | 100 | 155 | 0.0 | 2.0 | 0.00 | 0.00 | 0.00 | 57 | 1012.1 |
| 20260905173702 | 100 | 295 | 1.0 | 3.0 | 0.00 | 0.00 | 0.00 | 59 | 1012.2 |
| 20260905173657 | 100 | 174 | 0.0 | 3.0 | 0.00 | 0.00 | 0.00 | 56 | 1012.2 |
| 20260905173156 | 100 | 34 | 0.0 | 3.0 | 0.00 | 0.00 | 0.00 | 54 | 1012.2 |
| 20260905172157 | 99 | 134 | 1.0 | 3.0 | 0.00 | 0.00 | 0.00 | 55 | 1012.2 |
| 20260905171657 | 99 | 172 | 0.0 | 2.0 | 0.00 | 0.00 | 0.00 | 57 | 1012.3 |
| 20260905171156 | 99 | 18 | 0.0 | 2.0 | 0.00 | 0.00 | 0.00 | 56 | 1012.3 |
| 20260905170657 | 98 | 236 | 1.0 | 3.0 | 0.00 | 0.00 | 0.00 | 58 | 1012.4 |
| 20260905170201 | 98 | 186 | 1.0 | 3.0 | 0.00 | 0.00 | 0.00 | 57 | 1012.6 |
| 20260905170157 | 98 | 143 | 1.0 | 3.0 | 0.00 | 0.00 | 0.00 | 57 | 1012.5 |
| 20260905165155 | 98 | 101 | 0.0 | 2.0 | 0.00 | 0.00 | 0.00 | 60 | 1012.6 |
| 20260905164657 | 98 | 197 | 0.0 | 2.0 | 0.00 | 0.00 | 0.00 | 58 | 1012.6 |
| 20260905164157 | 98 | 107 | 0.0 | 2.0 | 0.00 | 0.00 | 0.00 | 60 | 1012.8 |
| 20260905163701 | 96 | 39 | 0.0 | 2.0 | 0.00 | 0.00 | 0.00 | 60 | 1013.0 |
| 20260905163656 | 97 | 157 | 0.0 | 2.0 | 0.00 | 0.00 | 0.00 | 60 | 1012.9 |
| 20260905162656 | 96 | 20 | 0.0 | 2.0 | 0.00 | 0.00 | 0.00 | 60 | 1012.9 |
| 20260905162157 | 97 | 12 | 0.0 | 2.0 | 0.00 | 0.00 | 0.00 | 60 | 1012.9 |
| 20260905161656 | 96 | 145 | 0.0 | 2.0 | 0.00 | 0.00 | 0.00 | 65 | 1013.0 |
| 20260905161156 | 96 | 236 | 0.0 | 2.0 | 0.00 | 0.00 | 0.00 | 63 | 1013.0 |
| 20260905160701 | 95 | 107 | 0.0 | 1.0 | 0.00 | 0.00 | 0.00 | 64 | 1013.0 |
| 20260905160656 | 95 | 355 | 0.0 | 2.0 | 0.00 | 0.00 | 0.00 | 62 | 1013.0 |
| 20260905155655 | 94 | 107 | 0.0 | 2.0 | 0.00 | 0.00 | 0.00 | 63 | 1013.1 |
| 20260905155157 | 94 | 121 | 0.0 | 2.0 | 0.00 | 0.00 | 0.00 | 66 | 1013.1 |
| 20260905154656 | 94 | 219 | 0.0 | 1.0 | 0.00 | 0.00 | 0.00 | 66 | 1013.1 |
| 20260905154155 | 93 | 232 | 0.0 | 3.0 | 0.00 | 0.00 | 0.00 | 68 | 1013.1 |
| 20260905153655 | 93 | 248 | 0.0 | 3.0 | 0.00 | 0.00 | 0.00 | 69 | 1013.1 |
| 20260905153157 | 92 | 235 | 0.0 | 3.0 | 0.00 | 0.00 | 0.00 | 68 | 1013.1 |
| 20260905152657 | 92 | 49 | 0.0 | 3.0 | 0.00 | 0.00 | 0.00 | 69 | 1013.0 |
| 20260905152157 | 91 | 103 | 0.0 | 1.0 | 0.00 | 0.00 | 0.00 | 72 | 1013.0 |
| 20260905151656 | 91 | 69 | 0.0 | 2.0 | 0.00 | 0.00 | 0.00 | 68 | 1013.0 |
| 20260905151157 | 91 | 71 | 0.0 | 2.0 | 0.00 | 0.00 | 0.00 | 70 | 1013.1 |
| 20260905150655 | 90 | 12 | 0.0 | 2.0 | 0.00 | 0.00 | 0.00 | 70 | 1013.1 |
| 20260905150155 | 90 | 143 | 0.0 | 1.0 | 0.00 | 0.00 | 0.00 | 72 | 1013.0 |
| 20260905145656 | 89 | 276 | 0.0 | 2.0 | 0.00 | 0.00 | 0.00 | 73 | 1013.0 |
| 20260905145155 | 88 | 226 | 0.0 | 2.0 | 0.00 | 0.00 | 0.00 | 75 | 1012.9 |
| 20260905144656 | 87 | 108 | 0.0 | 3.0 | 0.00 | 0.00 | 0.00 | 76 | 1013.0 |
| 20260905144156 | 87 | 165 | 0.0 | 3.0 | 0.00 | 0.00 | 0.00 | 77 | 1012.9 |
| 20260905143656 | 86 | 110 | 0.0 | 2.0 | 0.00 | 0.00 | 0.00 | 79 | 1012.9 |
| 20260905143155 | 85 | 278 | 0.0 | 1.0 | 0.00 | 0.00 | 0.00 | 80 | 1013.0 |
| 20260905142700 | 84 | 95 | 0.0 | 1.0 | 0.00 | 0.00 | 0.00 | 83 | 1012.9 |
| 20260905142655 | 85 | 214 | 0.0 | 1.0 | 0.00 | 0.00 | 0.00 | 81 | 1012.9 |
| 20260905141656 | 84 | 95 | 0.0 | 1.0 | 0.00 | 0.00 | 0.00 | 85 | 1012.9 |
| 20260905141155 | 83 | 95 | 0.0 | 1.0 | 0.00 | 0.00 | 0.00 | 85 | 1013.0 |
| 20260905140656 | 83 | 95 | 0.0 | 1.0 | 0.00 | 0.00 | 0.00 | 87 | 1013.0 |
| 20260905140156 | 83 | 153 | 0.0 | 0.0 | 0.00 | 0.00 | 0.00 | 88 | 1013.0 |
| 20260905135656 | 82 | 154 | 0.0 | 0.0 | 0.00 | 0.00 | 0.00 | 89 | 1013.0 |
| 20260905135156 | 82 | 154 | 0.0 | 0.0 | 0.00 | 0.00 | 0.00 | 91 | 1013.0 |
| 20260905134656 | 81 | 154 | 0.0 | 0.0 | 0.00 | 0.00 | 0.00 | 92 | 1012.9 |
| 20260905134156 | 81 | 153 | 0.0 | 0.0 | 0.00 | 0.00 | 0.00 | 94 | 1012.9 |
| 20260905133656 | 80 | 154 | 0.0 | 0.0 | 0.00 | 0.00 | 0.00 | 95 | 1012.9 |
| 20260905133201 | 79 | 154 | 0.0 | 0.0 | 0.00 | 0.00 | 0.00 | 97 | 1012.9 |
| 20260905133157 | 80 | 154 | 0.0 | 0.0 | 0.00 | 0.00 | 0.00 | 96 | 1012.9 |
| 20260905132811 | 78 | 153 | 0.0 | 0.0 | 0.00 | 0.00 | 0.00 | 97 | 1012.8 |
| 20260905131656 | 78 | 153 | 0.0 | 0.0 | 0.00 | 0.00 | 0.00 | 98 | 1012.9 |
| 20260905131156 | 77 | 154 | 0.0 | 0.0 | 0.00 | 0.00 | 0.00 | 98 | 1012.9 |
| 20260905130656 | 77 | 153 | 0.0 | 0.0 | 0.00 | 0.00 | 0.00 | 98 | 1012.8 |
| 20260905130156 | 76 | 154 | 0.0 | 0.0 | 0.00 | 0.00 | 0.00 | 98 | 1012.8 |
| 20260905125656 | 76 | 153 | 0.0 | 0.0 | 0.00 | 0.00 | 0.00 | 98 | 1012.8 |
| 20260905125156 | 75 | 153 | 0.0 | 0.0 | 0.00 | 0.00 | 0.00 | 98 | 1012.8 |
| 20260905124655 | 75 | 154 | 0.0 | 0.0 | 0.00 | 0.00 | 0.00 | 98 | 1012.7 |
| 20260905124201 | 74 | 153 | 0.0 | 0.0 | 0.00 | 0.00 | 0.00 | 98 | 1012.7 |
| 20260905124157 | 75 | 154 | 0.0 | 0.0 | 0.00 | 0.00 | 0.00 | 98 | 1012.7 |
| 20260905123157 | 74 | 153 | 0.0 | 0.0 | 0.00 | 0.00 | 0.00 | 98 | 1012.6 |
| 20260905122701 | 74 | 153 | 0.0 | 0.0 | 0.00 | 0.00 | 0.00 | 98 | 1012.4 |
| 20260905122655 | 74 | 154 | 0.0 | 0.0 | 0.00 | 0.00 | 0.00 | 98 | 1012.5 |
| 20260905121659 | 73 | 154 | 0.0 | 0.0 | 0.00 | 0.00 | 0.00 | 98 | 1012.4 |
| 20260905121655 | 73 | 153 | 0.0 | 0.0 | 0.00 | 0.00 | 0.00 | 98 | 1012.4 |
| 20260905120654 | 73 | 153 | 0.0 | 0.0 | 0.00 | 0.00 | 0.00 | 98 | 1012.4 |
| 20260905120155 | 73 | 154 | 0.0 | 0.0 | 0.00 | 0.00 | 0.00 | 98 | 1012.4 |
| 20260905115654 | 73 | 153 | 0.0 | 0.0 | 0.00 | 0.00 | 0.00 | 98 | 1012.3 |
| 20260905115155 | 73 | 154 | 0.0 | 0.0 | 0.00 | 0.00 | 0.00 | 98 | 1012.2 |
| 20260905114659 | 73 | 154 | 0.0 | 0.0 | 0.00 | 0.00 | 0.00 | 98 | 1012.0 |
| 20260905114654 | 73 | 154 | 0.0 | 0.0 | 0.00 | 0.00 | 0.00 | 98 | 1012.2 |
| 20260905113659 | 73 | 153 | 0.0 | 0.0 | 0.00 | 0.00 | 0.00 | 97 | 1012.0 |
| 20260905113653 | 73 | 153 | 0.0 | 0.0 | 0.00 | 0.00 | 0.00 | 97 | 1012.0 |
| 20260905112653 | 73 | 153 | 0.0 | 0.0 | 0.00 | 0.00 | 0.00 | 97 | 1012.0 |
| 20260905112155 | 73 | 153 | 0.0 | 0.0 | 0.00 | 0.00 | 0.00 | 97 | 1011.9 |
| 20260905111658 | 73 | 154 | 0.0 | 0.0 | 0.00 | 0.00 | 0.00 | 97 | 1011.8 |
| 20260905111653 | 73 | 154 | 0.0 | 0.0 | 0.00 | 0.00 | 0.00 | 97 | 1011.9 |
| 20260905110654 | 73 | 154 | 0.0 | 0.0 | 0.00 | 0.00 | 0.00 | 97 | 1011.8 |
| 20260905110154 | 73 | 154 | 0.0 | 0.0 | 0.00 | 0.00 | 0.00 | 97 | 1011.8 |
| 20260905105654 | 73 | 154 | 0.0 | 0.0 | 0.00 | 0.00 | 0.00 | 97 | 1011.8 |
| 20260905105159 | 73 | 153 | 0.0 | 0.0 | 0.00 | 0.00 | 0.00 | 97 | 1011.8 |
| 20260905105154 | 73 | 153 | 0.0 | 0.0 | 0.00 | 0.00 | 0.00 | 97 | 1011.9 |
| 20260905104154 | 73 | 153 | 0.0 | 0.0 | 0.00 | 0.00 | 0.00 | 97 | 1011.8 |
| 20260905103659 | 74 | 153 | 0.0 | 0.0 | 0.00 | 0.00 | 0.00 | 96 | 1011.8 |
| 20260905103655 | 73 | 153 | 0.0 | 0.0 | 0.00 | 0.00 | 0.00 | 97 | 1011.9 |
| 20260905103155 | 73 | 154 | 0.0 | 0.0 | 0.00 | 0.00 | 0.00 | 97 | 1011.9 |
| 20260905102154 | 74 | 154 | 0.0 | 0.0 | 0.00 | 0.00 | 0.00 | 96 | 1011.8 |
| 20260905101700 | 74 | 154 | 0.0 | 0.0 | 0.00 | 0.00 | 0.00 | 96 | 1012.0 |
| 20260905101655 | 74 | 153 | 0.0 | 0.0 | 0.00 | 0.00 | 0.00 | 96 | 1011.9 |
| 20260905100654 | 74 | 154 | 0.0 | 0.0 | 0.00 | 0.00 | 0.00 | 96 | 1012.0 |
| 20260905100155 | 74 | 153 | 0.0 | 0.0 | 0.00 | 0.00 | 0.00 | 96 | 1012.0 |
| 20260905095659 | 74 | 153 | 0.0 | 0.0 | 0.00 | 0.00 | 0.00 | 96 | 1011.9 |
| 20260905095654 | 74 | 154 | 0.0 | 0.0 | 0.00 | 0.00 | 0.00 | 96 | 1012.0 |
| 20260905094654 | 74 | 153 | 0.0 | 0.0 | 0.00 | 0.00 | 0.00 | 96 | 1011.8 |
| 20260905094155 | 74 | 153 | 0.0 | 0.0 | 0.00 | 0.00 | 0.00 | 96 | 1011.9 |
| 20260905093659 | 74 | 153 | 0.0 | 0.0 | 0.00 | 0.00 | 0.00 | 96 | 1011.9 |
| 20260905093653 | 74 | 154 | 0.0 | 0.0 | 0.00 | 0.00 | 0.00 | 96 | 1011.9 |
| 20260905092654 | 74 | 154 | 0.0 | 0.0 | 0.00 | 0.00 | 0.00 | 95 | 1011.9 |
| 20260905092153 | 74 | 154 | 0.0 | 0.0 | 0.00 | 0.00 | 0.00 | 95 | 1011.9 |
| 20260905091655 | 74 | 153 | 0.0 | 0.0 | 0.00 | 0.00 | 0.00 | 95 | 1011.9 |
| 20260905091154 | 74 | 153 | 0.0 | 0.0 | 0.00 | 0.00 | 0.00 | 95 | 1011.9 |
| 20260905090659 | 75 | 153 | 0.0 | 0.0 | 0.00 | 0.00 | 0.00 | 95 | 1011.9 |
| 20260905090655 | 75 | 153 | 0.0 | 0.0 | 0.00 | 0.00 | 0.00 | 95 | 1011.9 |
| 20260905085653 | 75 | 153 | 0.0 | 0.0 | 0.00 | 0.00 | 0.00 | 95 | 1011.9 |
| 20260905085155 | 75 | 154 | 0.0 | 0.0 | 0.00 | 0.00 | 0.00 | 95 | 1011.9 |
| 20260905084653 | 75 | 154 | 0.0 | 0.0 | 0.00 | 0.00 | 0.00 | 95 | 1012.0 |
| 20260905084159 | 75 | 154 | 0.0 | 1.0 | 0.00 | 0.00 | 0.00 | 95 | 1012.0 |
| 20260905084155 | 75 | 154 | 0.0 | 1.0 | 0.00 | 0.00 | 0.00 | 95 | 1012.0 |
| 20260905083153 | 75 | 153 | 0.0 | 1.0 | 0.00 | 0.00 | 0.00 | 95 | 1012.1 |
| 20260905082659 | 75 | 153 | 0.0 | 0.0 | 0.00 | 0.00 | 0.00 | 96 | 1012.0 |
| 20260905082654 | 75 | 153 | 0.0 | 1.0 | 0.00 | 0.00 | 0.00 | 96 | 1012.0 |
| 20260905081654 | 75 | 154 | 0.0 | 0.0 | 0.00 | 0.00 | 0.00 | 96 | 1012.0 |
| 20260905081153 | 75 | 153 | 0.0 | 0.0 | 0.00 | 0.00 | 0.00 | 95 | 1012.0 |
| 20260905080654 | 75 | 153 | 0.0 | 0.0 | 0.00 | 0.00 | 0.00 | 96 | 1012.1 |
| 20260905080200 | 75 | 153 | 0.0 | 0.0 | 0.00 | 0.00 | 0.00 | 96 | 1012.3 |
| 20260905080155 | 75 | 153 | 0.0 | 0.0 | 0.00 | 0.00 | 0.00 | 96 | 1012.2 |
| 20260905075159 | 75 | 154 | 0.0 | 0.0 | 0.00 | 0.00 | 0.00 | 96 | 1012.2 |
| 20260905075155 | 75 | 154 | 0.0 | 0.0 | 0.00 | 0.00 | 0.00 | 96 | 1012.2 |
| 20260905074811 | 75 | 153 | 0.0 | 0.0 | 0.00 | 0.00 | 0.00 | 96 | 1012.2 |
| 20260905073654 | 75 | 153 | 0.0 | 0.0 | 0.00 | 0.00 | 0.00 | 96 | 1012.2 |
| 20260905073158 | 75 | 154 | 0.0 | 0.0 | 0.00 | 0.00 | 0.00 | 96 | 1012.2 |
| 20260905073154 | 75 | 153 | 0.0 | 0.0 | 0.00 | 0.00 | 0.00 | 96 | 1012.3 |
| 20260905072159 | 75 | 154 | 0.0 | 0.0 | 0.00 | 0.00 | 0.00 | 96 | 1012.3 |
| 20260905072155 | 75 | 153 | 0.0 | 0.0 | 0.00 | 0.00 | 0.00 | 96 | 1012.3 |
| 20260905071153 | 75 | 153 | 0.0 | 0.0 | 0.00 | 0.00 | 0.00 | 96 | 1012.3 |
| 20260905070653 | 75 | 154 | 0.0 | 0.0 | 0.00 | 0.00 | 0.00 | 96 | 1012.3 |
| 20260905070159 | 75 | 153 | 0.0 | 0.0 | 0.00 | 0.00 | 0.00 | 96 | 1012.3 |
| 20260905070153 | 75 | 154 | 0.0 | 0.0 | 0.00 | 0.00 | 0.00 | 96 | 1012.3 |
| 20260905065154 | 75 | 154 | 0.0 | 0.0 | 0.00 | 0.00 | 0.00 | 96 | 1012.3 |
| 20260905064653 | 75 | 154 | 0.0 | 0.0 | 0.00 | 0.00 | 0.00 | 96 | 1012.3 |
| 20260905064154 | 75 | 154 | 0.0 | 0.0 | 0.00 | 0.00 | 0.00 | 96 | 1012.4 |
| 20260905063658 | 75 | 153 | 0.0 | 0.0 | 0.00 | 0.00 | 0.00 | 96 | 1012.4 |
| 20260905063653 | 75 | 153 | 0.0 | 0.0 | 0.00 | 0.00 | 0.00 | 96 | 1012.4 |
| 20260905062654 | 75 | 154 | 0.0 | 0.0 | 0.00 | 0.00 | 0.00 | 96 | 1012.4 |
| 20260905062154 | 75 | 154 | 0.0 | 0.0 | 0.00 | 0.00 | 0.00 | 96 | 1012.4 |
| 20260905061654 | 75 | 153 | 0.0 | 0.0 | 0.00 | 0.00 | 0.00 | 96 | 1012.5 |
| 20260905061153 | 75 | 153 | 0.0 | 0.0 | 0.00 | 0.00 | 0.00 | 96 | 1012.5 |
| 20260905060654 | 75 | 153 | 0.0 | 0.0 | 0.00 | 0.00 | 0.00 | 96 | 1012.5 |
| 20260905060155 | 75 | 154 | 0.0 | 0.0 | 0.00 | 0.00 | 0.00 | 95 | 1012.5 |
| 20260905055653 | 75 | 154 | 0.0 | 0.0 | 0.00 | 0.00 | 0.00 | 95 | 1012.5 |
| 20260905055155 | 75 | 153 | 0.0 | 0.0 | 0.00 | 0.00 | 0.00 | 95 | 1012.6 |
| 20260905054653 | 75 | 154 | 0.0 | 0.0 | 0.00 | 0.00 | 0.00 | 95 | 1012.5 |
| 20260905054153 | 75 | 154 | 0.0 | 0.0 | 0.00 | 0.00 | 0.00 | 95 | 1012.6 |
| 20260905053659 | 76 | 154 | 0.0 | 0.0 | 0.00 | 0.00 | 0.00 | 95 | 1012.5 |
| 20260905053654 | 75 | 154 | 0.0 | 0.0 | 0.00 | 0.00 | 0.00 | 95 | 1012.5 |
| 20260905053310 | 76 | 154 | 0.0 | 0.0 | 0.00 | 0.00 | 0.00 | 95 | 1012.5 |
| 20260905052154 | 76 | 153 | 0.0 | 0.0 | 0.00 | 0.00 | 0.00 | 95 | 1012.5 |
| 20260905051659 | 76 | 153 | 0.0 | 0.0 | 0.00 | 0.00 | 0.00 | 95 | 1012.4 |
| 20260905051654 | 76 | 153 | 0.0 | 0.0 | 0.00 | 0.00 | 0.00 | 95 | 1012.5 |
| 20260905051310 | 76 | 153 | 0.0 | 0.0 | 0.00 | 0.00 | 0.00 | 95 | 1012.4 |
| 20260905050158 | 76 | 153 | 0.0 | 0.0 | 0.00 | 0.00 | 0.00 | 95 | 1012.4 |
| 20260905050154 | 76 | 153 | 0.0 | 0.0 | 0.00 | 0.00 | 0.00 | 95 | 1012.4 |
| 20260905045809 | 76 | 154 | 0.0 | 0.0 | 0.00 | 0.00 | 0.00 | 94 | 1012.4 |
| 20260905044700 | 76 | 154 | 0.0 | 0.0 | 0.00 | 0.00 | 0.00 | 94 | 1012.3 |
| 20260905044655 | 76 | 153 | 0.0 | 0.0 | 0.00 | 0.00 | 0.00 | 94 | 1012.3 |
| 20260905044311 | 76 | 153 | 0.0 | 0.0 | 0.00 | 0.00 | 0.00 | 94 | 1012.4 |
| 20260905043154 | 76 | 154 | 0.0 | 0.0 | 0.00 | 0.00 | 0.00 | 94 | 1012.3 |
| 20260905042654 | 76 | 153 | 0.0 | 0.0 | 0.00 | 0.00 | 0.00 | 94 | 1012.4 |
| 20260905042153 | 77 | 154 | 0.0 | 0.0 | 0.00 | 0.00 | 0.00 | 94 | 1012.3 |
| 20260905041655 | 77 | 153 | 0.0 | 0.0 | 0.00 | 0.00 | 0.00 | 94 | 1012.3 |
| 20260905041153 | 77 | 153 | 0.0 | 0.0 | 0.00 | 0.00 | 0.00 | 94 | 1012.3 |
| 20260905040655 | 77 | 154 | 0.0 | 0.0 | 0.00 | 0.00 | 0.00 | 94 | 1012.2 |
| 20260905040154 | 77 | 153 | 0.0 | 0.0 | 0.00 | 0.00 | 0.00 | 93 | 1012.2 |
| 20260905035654 | 77 | 153 | 0.0 | 0.0 | 0.00 | 0.00 | 0.00 | 93 | 1012.2 |
| 20260905035154 | 77 | 153 | 0.0 | 0.0 | 0.00 | 0.00 | 0.00 | 93 | 1012.2 |
| 20260905034653 | 77 | 153 | 0.0 | 0.0 | 0.00 | 0.00 | 0.00 | 93 | 1012.2 |
| 20260905034154 | 77 | 153 | 0.0 | 0.0 | 0.00 | 0.00 | 0.00 | 92 | 1012.2 |
| 20260905033655 | 78 | 153 | 0.0 | 0.0 | 0.00 | 0.00 | 0.00 | 92 | 1012.3 |
| 20260905033154 | 78 | 154 | 0.0 | 0.0 | 0.00 | 0.00 | 0.00 | 93 | 1012.2 |
| 20260905032659 | 78 | 153 | 0.0 | 0.0 | 0.00 | 0.00 | 0.00 | 92 | 1012.3 |
| 20260905032654 | 78 | 153 | 0.0 | 0.0 | 0.00 | 0.00 | 0.00 | 92 | 1012.3 |
| 20260905031659 | 78 | 153 | 0.0 | 0.0 | 0.00 | 0.00 | 0.00 | 91 | 1012.5 |
| 20260905031653 | 78 | 154 | 0.0 | 0.0 | 0.00 | 0.00 | 0.00 | 91 | 1012.4 |
| 20260905030654 | 78 | 153 | 0.0 | 0.0 | 0.00 | 0.00 | 0.00 | 91 | 1012.5 |
| 20260905030155 | 78 | 153 | 0.0 | 0.0 | 0.00 | 0.00 | 0.00 | 90 | 1012.5 |
| 20260905025654 | 78 | 153 | 0.0 | 0.0 | 0.00 | 0.00 | 0.00 | 90 | 1012.5 |
| 20260905025154 | 79 | 153 | 0.0 | 0.0 | 0.00 | 0.00 | 0.00 | 90 | 1012.4 |
| 20260905024655 | 79 | 154 | 0.0 | 0.0 | 0.00 | 0.00 | 0.00 | 90 | 1012.4 |
| 20260905024155 | 79 | 154 | 0.0 | 0.0 | 0.00 | 0.00 | 0.00 | 89 | 1012.4 |
| 20260905023655 | 79 | 153 | 0.0 | 0.0 | 0.00 | 0.00 | 0.00 | 89 | 1012.4 |
| 20260905023154 | 79 | 154 | 0.0 | 0.0 | 0.00 | 0.00 | 0.00 | 89 | 1012.4 |
| 20260905022654 | 79 | 154 | 0.0 | 0.0 | 0.00 | 0.00 | 0.00 | 88 | 1012.4 |
| 20260905022153 | 80 | 154 | 0.0 | 0.0 | 0.00 | 0.00 | 0.00 | 88 | 1012.3 |
| 20260905021655 | 80 | 153 | 0.0 | 0.0 | 0.00 | 0.00 | 0.00 | 88 | 1012.2 |
| 20260905021152 | 80 | 153 | 0.0 | 0.0 | 0.00 | 0.00 | 0.00 | 87 | 1012.1 |
| 20260905020652 | 80 | 153 | 0.0 | 0.0 | 0.00 | 0.00 | 0.00 | 87 | 1012.1 |
| 20260905020157 | 80 | 153 | 0.0 | 0.0 | 0.00 | 0.00 | 0.00 | 86 | 1012.0 |
| 20260905020151 | 80 | 153 | 0.0 | 0.0 | 0.00 | 0.00 | 0.00 | 87 | 1012.0 |
| 20260905015153 | 80 | 153 | 0.0 | 0.0 | 0.00 | 0.00 | 0.00 | 86 | 1012.0 |
| 20260905014657 | 81 | 153 | 0.0 | 0.0 | 0.00 | 0.00 | 0.00 | 85 | 1011.8 |
| 20260905014652 | 81 | 153 | 0.0 | 0.0 | 0.00 | 0.00 | 0.00 | 85 | 1011.9 |
| 20260905013653 | 81 | 153 | 0.0 | 0.0 | 0.00 | 0.00 | 0.00 | 84 | 1011.6 |
| 20260905013152 | 82 | 153 | 0.0 | 0.0 | 0.00 | 0.00 | 0.00 | 83 | 1011.7 |